Tracking 18840 objects as of 18-November-2017
HD Live streaming from Space Station
objects crossing your sky now

METEOR 1-23

Track METEOR 1-23 now!
10-day predictions
METEOR 1-23 is classified as:


NORAD ID: 8519
Int'l Code: 1975-124A
Perigee: 854.4 km
Apogee: 873.4 km
Inclination: 81.2 °
Period: 102.1 minutes
Semi major axis: 7234 km
RCS: 4.3645 m2 (large)
Launch date: December 25, 1975
Source: Commonwealth of Independent States (former USSR) (CIS)
Launch site: PLESETSK MISSILE AND SPACE COMPLEX (PKMTR)
aabbcc
Your satellite tracking list
Your tracking list is empty




NASA's NSSDC Master Catalog

Two Line Element Set (TLE):
1 08519U 75124A   17322.43179337 -.00000044  00000-0 -31494-4 0  9999
2 08519  81.2418 298.4259 0013136 200.0514 160.0143 14.10771498155394
Source of the keplerian elements: AFSPC